Time,TemperatureF,DewpointF,PressureIn,WindDirection,WindDirectionDegrees,WindSpeedMPH,WindSpeedGustMPH,Humidity,HourlyPrecipIn,Conditions,Clouds,dailyrainin,SoftwareType,DateUTC
2013-04-26 00:03:00,43.7,17.2,30.17,SE,135,6.0,8.0,34,0.00,,,0.00,meteohub,2013-04-26 05:03:00,
2013-04-26 00:08:00,43.7,17.2,30.16,South,180,8.0,8.0,34,0.00,,,0.00,meteohub,2013-04-26 05:08:00,
2013-04-26 00:13:00,43.5,17.6,30.16,SE,135,6.0,8.0,35,0.00,,,0.00,meteohub,2013-04-26 05:13:00,
2013-04-26 00:19:00,43.5,17.6,30.16,SE,135,8.0,8.0,35,0.00,,,0.00,meteohub,2013-04-26 05:19:00,
2013-04-26 00:24:00,43.5,17.6,30.16,SE,135,7.0,8.0,35,0.00,,,0.00,meteohub,2013-04-26 05:24:00,
2013-04-26 00:29:00,43.3,18.1,30.16,SE,135,7.0,8.0,36,0.00,,,0.00,meteohub,2013-04-26 05:29:00,
2013-04-26 00:34:00,43.0,18.5,30.16,SE,135,7.0,9.0,37,0.00,,,0.00,meteohub,2013-04-26 05:34:00,
2013-04-26 00:39:00,42.8,18.9,30.16,South,180,7.0,9.0,38,0.00,,,0.00,meteohub,2013-04-26 05:39:00,
2013-04-26 00:44:00,42.6,19.9,30.16,SE,135,9.0,9.0,40,0.00,,,0.00,meteohub,2013-04-26 05:44:00,
2013-04-26 00:49:00,42.8,19.6,30.16,SE,135,8.0,11.0,39,0.00,,,0.00,meteohub,2013-04-26 05:49:00,
2013-04-26 00:54:00,42.6,19.9,30.16,SE,135,8.0,11.0,40,0.00,,,0.00,meteohub,2013-04-26 05:54:00,
2013-04-26 00:59:00,42.4,20.5,30.16,SE,135,9.0,11.0,41,0.00,,,0.00,meteohub,2013-04-26 05:59:00,
2013-04-26 01:04:00,42.4,20.5,30.16,SE,135,10.0,11.0,41,0.00,,,0.00,meteohub,2013-04-26 06:04:00,
2013-04-26 01:09:00,42.4,21.0,30.15,SE,135,8.0,11.0,42,0.00,,,0.00,meteohub,2013-04-26 06:09:00,
2013-04-26 01:14:00,42.4,21.6,30.15,SE,135,7.0,11.0,43,0.00,,,0.00,meteohub,2013-04-26 06:14:00,
2013-04-26 01:19:00,42.1,21.2,30.15,SE,135,8.0,10.0,43,0.00,,,0.00,meteohub,2013-04-26 06:19:00,
2013-04-26 01:24:00,42.1,21.2,30.15,South,180,9.0,10.0,43,0.00,,,0.00,meteohub,2013-04-26 06:24:00,
2013-04-26 01:29:00,41.9,21.0,30.15,SE,135,11.0,11.0,43,0.00,,,0.00,meteohub,2013-04-26 06:29:00,
2013-04-26 01:34:00,42.1,21.2,30.15,SE,135,8.0,11.0,43,0.00,,,0.00,meteohub,2013-04-26 06:34:00,
2013-04-26 01:39:00,41.9,21.6,30.14,SE,135,10.0,11.0,44,0.00,,,0.00,meteohub,2013-04-26 06:39:00,
2013-04-26 01:44:00,41.9,21.6,30.14,SE,135,9.0,11.0,44,0.00,,,0.00,meteohub,2013-04-26 06:44:00,
2013-04-26 01:49:00,41.9,21.6,30.14,SE,135,8.0,11.0,44,0.00,,,0.00,meteohub,2013-04-26 06:49:00,
2013-04-26 01:54:00,41.7,21.9,30.14,SE,135,10.0,11.0,45,0.00,,,0.00,meteohub,2013-04-26 06:54:00,
2013-04-26 01:59:00,41.5,21.7,30.14,SE,135,10.0,11.0,45,0.00,,,0.00,meteohub,2013-04-26 06:59:00,
2013-04-26 02:04:00,41.5,22.3,30.14,SE,135,11.0,11.0,46,0.00,,,0.00,meteohub,2013-04-26 07:04:00,
2013-04-26 02:10:00,41.5,22.3,30.13,SE,135,10.0,12.0,46,0.00,,,0.00,meteohub,2013-04-26 07:10:00,
2013-04-26 02:15:00,41.2,22.5,30.13,South,180,11.0,12.0,47,0.00,,,0.00,meteohub,2013-04-26 07:15:00,
2013-04-26 02:20:00,41.2,23.0,30.13,SE,135,11.0,12.0,48,0.00,,,0.00,meteohub,2013-04-26 07:20:00,
2013-04-26 02:25:00,41.4,23.2,30.13,SE,135,9.0,13.0,48,0.00,,,0.00,meteohub,2013-04-26 07:25:00,
2013-04-26 02:30:00,41.5,23.4,30.13,SE,135,14.0,14.0,48,0.00,,,0.00,meteohub,2013-04-26 07:30:00,
2013-04-26 02:35:00,41.5,23.7,30.13,SE,135,11.0,13.0,49,0.00,,,0.00,meteohub,2013-04-26 07:35:00,
2013-04-26 02:40:00,41.2,23.9,30.12,SE,135,14.0,14.0,50,0.00,,,0.00,meteohub,2013-04-26 07:40:00,
2013-04-26 02:45:00,41.4,24.1,30.12,SE,135,12.0,14.0,50,0.00,,,0.00,meteohub,2013-04-26 07:45:00,
2013-04-26 02:50:00,41.4,24.6,30.12,SE,135,11.0,15.0,51,0.00,,,0.00,meteohub,2013-04-26 07:50:00,
2013-04-26 02:55:00,41.7,25.0,30.12,South,180,15.0,15.0,51,0.00,,,0.00,meteohub,2013-04-26 07:55:00,
2013-04-26 03:00:00,41.5,25.2,30.12,SE,135,11.0,15.0,52,0.00,,,0.00,meteohub,2013-04-26 08:00:00,
2013-04-26 03:05:00,41.5,25.2,30.12,SE,135,11.0,15.0,52,0.00,,,0.00,meteohub,2013-04-26 08:05:00,
2013-04-26 03:10:00,41.9,26.1,30.12,South,180,16.0,16.0,53,0.00,,,0.00,meteohub,2013-04-26 08:10:00,
2013-04-26 03:15:00,42.3,26.4,30.12,South,180,11.0,16.0,53,0.00,,,0.00,meteohub,2013-04-26 08:15:00,
2013-04-26 03:20:00,42.3,26.4,30.12,SE,135,13.0,16.0,53,0.00,,,0.00,meteohub,2013-04-26 08:20:00,
2013-04-26 03:25:00,42.3,26.4,30.12,SE,135,9.0,16.0,53,0.00,,,0.00,meteohub,2013-04-26 08:25:00,
2013-04-26 03:30:00,42.1,26.2,30.12,South,180,10.0,15.0,53,0.00,,,0.00,meteohub,2013-04-26 08:30:00,
2013-04-26 03:35:00,42.1,26.2,30.12,SE,135,11.0,13.0,53,0.00,,,0.00,meteohub,2013-04-26 08:35:00,
2013-04-26 03:40:00,42.4,26.6,30.12,SE,135,14.0,14.0,53,0.00,,,0.00,meteohub,2013-04-26 08:40:00,
2013-04-26 03:45:00,42.6,26.6,30.12,South,180,13.0,14.0,53,0.00,,,0.00,meteohub,2013-04-26 08:45:00,
2013-04-26 03:50:00,42.6,26.6,30.12,SE,135,13.0,14.0,53,0.00,,,0.00,meteohub,2013-04-26 08:50:00,
2013-04-26 03:56:00,42.4,26.6,30.12,SE,135,11.0,14.0,53,0.00,,,0.00,meteohub,2013-04-26 08:56:00,
2013-04-26 04:01:00,42.3,26.8,30.12,SE,135,10.0,14.0,54,0.00,,,0.00,meteohub,2013-04-26 09:01:00,
2013-04-26 04:06:00,42.3,26.8,30.12,SE,135,11.0,13.0,54,0.00,,,0.00,meteohub,2013-04-26 09:06:00,
2013-04-26 04:11:00,42.6,27.1,30.13,South,180,11.0,15.0,54,0.00,,,0.00,meteohub,2013-04-26 09:11:00,
2013-04-26 04:16:00,42.4,27.0,30.13,South,180,11.0,15.0,54,0.00,,,0.00,meteohub,2013-04-26 09:16:00,
2013-04-26 04:21:00,41.9,27.0,30.13,South,180,10.0,15.0,55,0.00,,,0.00,meteohub,2013-04-26 09:21:00,
2013-04-26 04:26:00,41.4,26.8,30.13,SE,135,12.0,14.0,56,0.00,,,0.00,meteohub,2013-04-26 09:26:00,
2013-04-26 04:31:00,41.5,27.5,30.12,South,180,11.0,14.0,57,0.00,,,0.00,meteohub,2013-04-26 09:31:00,
2013-04-26 04:36:00,42.1,27.9,30.12,SE,135,17.0,17.0,57,0.00,,,0.00,meteohub,2013-04-26 09:36:00,
2013-04-26 04:41:00,42.3,28.0,30.13,SE,135,13.0,17.0,57,0.00,,,0.00,meteohub,2013-04-26 09:41:00,
2013-04-26 04:46:00,42.4,28.2,30.12,South,180,11.0,17.0,57,0.00,,,0.00,meteohub,2013-04-26 09:46:00,
2013-04-26 04:51:00,42.4,28.2,30.12,SE,135,13.0,17.0,57,0.00,,,0.00,meteohub,2013-04-26 09:51:00,
2013-04-26 04:56:00,42.4,28.2,30.13,South,180,12.0,17.0,57,0.00,,,0.00,meteohub,2013-04-26 09:56:00,
2013-04-26 05:01:00,42.3,28.0,30.13,South,180,12.0,15.0,57,0.00,,,0.00,meteohub,2013-04-26 10:01:00,
2013-04-26 05:06:00,42.3,28.0,30.13,South,180,12.0,15.0,57,0.00,,,0.00,meteohub,2013-04-26 10:06:00,
2013-04-26 05:11:00,42.4,28.8,30.13,SE,135,11.0,15.0,58,0.00,,,0.00,meteohub,2013-04-26 10:11:00,
2013-04-26 05:16:00,42.6,28.9,30.13,SE,135,9.0,15.0,58,0.00,,,0.00,meteohub,2013-04-26 10:16:00,
2013-04-26 05:21:00,42.4,28.8,30.13,SE,135,11.0,15.0,58,0.00,,,0.00,meteohub,2013-04-26 10:21:00,
2013-04-26 05:26:00,42.4,28.8,30.13,South,180,10.0,13.0,58,0.00,,,0.00,meteohub,2013-04-26 10:26:00,
2013-04-26 05:31:00,42.6,28.9,30.13,East,90,12.0,12.0,58,0.00,,,0.00,meteohub,2013-04-26 10:31:00,
2013-04-26 05:36:00,42.6,28.9,30.14,SE,135,11.0,15.0,58,0.00,,,0.00,meteohub,2013-04-26 10:36:00,
2013-04-26 05:42:00,42.6,29.3,30.14,SE,135,13.0,15.0,59,0.00,,,0.00,meteohub,2013-04-26 10:42:00,
2013-04-26 05:47:00,43.0,29.3,30.13,SE,135,13.0,15.0,58,0.00,,,0.00,meteohub,2013-04-26 10:47:00,
2013-04-26 05:52:00,43.3,29.5,30.13,SE,135,11.0,16.0,58,0.00,,,0.00,meteohub,2013-04-26 10:52:00,
2013-04-26 05:57:00,43.2,29.3,30.13,South,180,10.0,16.0,58,0.00,,,0.00,meteohub,2013-04-26 10:57:00,
2013-04-26 06:02:00,43.2,29.3,30.13,South,180,15.0,16.0,58,0.00,,,0.00,meteohub,2013-04-26 11:02:00,
2013-04-26 06:07:00,43.5,29.7,30.13,SE,135,15.0,15.0,58,0.00,,,0.00,meteohub,2013-04-26 11:07:00,
2013-04-26 06:12:00,43.2,29.3,30.13,SE,135,12.0,15.0,58,0.00,,,0.00,meteohub,2013-04-26 11:12:00,
2013-04-26 06:17:00,43.3,29.5,30.13,SE,135,15.0,15.0,58,0.00,,,0.00,meteohub,2013-04-26 11:17:00,
2013-04-26 06:22:00,43.5,29.7,30.12,SE,135,13.0,15.0,58,0.00,,,0.00,meteohub,2013-04-26 11:22:00,
2013-04-26 06:27:00,43.7,30.4,30.12,SE,135,12.0,15.0,59,0.00,,,0.00,meteohub,2013-04-26 11:27:00,
2013-04-26 06:32:00,43.5,30.2,30.12,SE,135,15.0,15.0,59,0.00,,,0.00,meteohub,2013-04-26 11:32:00,
2013-04-26 06:37:00,43.3,30.0,30.12,SE,135,14.0,16.0,59,0.00,,,0.00,meteohub,2013-04-26 11:37:00,
2013-04-26 06:42:00,43.2,30.2,30.12,SE,135,11.0,16.0,60,0.00,,,0.00,meteohub,2013-04-26 11:42:00,
2013-04-26 06:47:00,42.8,30.2,30.12,SE,135,13.0,15.0,61,0.00,,,0.00,meteohub,2013-04-26 11:47:00,
2013-04-26 06:52:00,43.0,30.9,30.13,SE,135,9.0,14.0,62,0.00,,,0.00,meteohub,2013-04-26 11:52:00,
2013-04-26 06:57:00,43.5,31.3,30.12,SE,135,15.0,15.0,62,0.00,,,0.00,meteohub,2013-04-26 11:57:00,
2013-04-26 07:02:00,43.7,31.5,30.12,SE,135,11.0,15.0,62,0.00,,,0.00,meteohub,2013-04-26 12:02:00,
2013-04-26 07:07:00,44.1,31.5,30.12,SE,135,13.0,15.0,61,0.00,,,0.00,meteohub,2013-04-26 12:07:00,
2013-04-26 07:12:00,44.6,31.6,30.12,SE,135,13.0,16.0,60,0.00,,,0.00,meteohub,2013-04-26 12:12:00,
2013-04-26 07:17:00,44.8,31.3,30.12,SE,135,12.0,16.0,59,0.00,,,0.00,meteohub,2013-04-26 12:17:00,
2013-04-26 07:22:00,44.8,31.3,30.12,SE,135,15.0,16.0,59,0.00,,,0.00,meteohub,2013-04-26 12:22:00,
2013-04-26 07:27:00,45.1,31.6,30.12,South,180,15.0,17.0,59,0.00,,,0.00,meteohub,2013-04-26 12:27:00,
2013-04-26 07:32:00,45.3,32.7,30.12,SE,135,16.0,17.0,61,0.00,,,0.00,meteohub,2013-04-26 12:32:00,
2013-04-26 07:37:00,45.3,32.2,30.12,South,180,15.0,17.0,60,0.00,,,0.00,meteohub,2013-04-26 12:37:00,
2013-04-26 07:42:00,45.3,32.2,30.12,South,180,21.0,21.0,60,0.00,,,0.00,meteohub,2013-04-26 12:42:00,
2013-04-26 07:47:00,45.5,32.4,30.12,SE,135,17.0,21.0,60,0.00,,,0.00,meteohub,2013-04-26 12:47:00,
2013-04-26 07:52:00,46.0,32.9,30.12,South,180,15.0,21.0,60,0.00,,,0.00,meteohub,2013-04-26 12:52:00,
2013-04-26 07:57:00,46.4,32.9,30.13,SE,135,19.0,21.0,59,0.00,,,0.00,meteohub,2013-04-26 12:57:00,
2013-04-26 08:02:00,46.8,33.3,30.12,South,180,12.0,19.0,59,0.00,,,0.00,meteohub,2013-04-26 13:02:00,
2013-04-26 08:07:00,47.1,33.1,30.12,South,180,15.0,19.0,58,0.00,,,0.00,meteohub,2013-04-26 13:07:00,
2013-04-26 08:12:00,47.8,33.8,30.12,SE,135,15.0,19.0,58,0.00,,,0.00,meteohub,2013-04-26 13:12:00,
2013-04-26 08:17:00,48.2,33.6,30.12,SE,135,14.0,19.0,57,0.00,,,0.00,meteohub,2013-04-26 13:17:00,
2013-04-26 08:22:00,48.6,33.6,30.12,South,180,17.0,17.0,56,0.00,,,0.00,meteohub,2013-04-26 13:22:00,
2013-04-26 08:27:00,49.1,34.2,30.12,South,180,17.0,17.0,56,0.00,,,0.00,meteohub,2013-04-26 13:27:00,
2013-04-26 08:32:00,50.2,34.2,30.12,South,180,23.0,23.0,54,0.00,,,0.00,meteohub,2013-04-26 13:32:00,
2013-04-26 08:37:00,50.7,34.7,30.12,South,180,16.0,23.0,54,0.00,,,0.00,meteohub,2013-04-26 13:37:00,
2013-04-26 08:42:00,50.7,34.2,30.12,SE,135,15.0,23.0,53,0.00,,,0.00,meteohub,2013-04-26 13:42:00,
2013-04-26 08:47:00,50.7,34.2,30.12,South,180,21.0,23.0,53,0.00,,,0.00,meteohub,2013-04-26 13:47:00,
2013-04-26 08:52:00,51.4,34.9,30.12,South,180,17.0,23.0,53,0.00,,,0.00,meteohub,2013-04-26 13:52:00,
2013-04-26 08:57:00,51.3,34.7,30.12,South,180,18.0,23.0,53,0.00,,,0.00,meteohub,2013-04-26 13:57:00,
2013-04-26 09:02:00,51.3,34.7,30.12,SE,135,14.0,23.0,53,0.00,,,0.00,meteohub,2013-04-26 14:02:00,
2013-04-26 09:07:00,51.3,34.7,30.12,SE,135,18.0,20.0,53,0.00,,,0.00,meteohub,2013-04-26 14:07:00,
2013-04-26 09:12:00,51.4,34.9,30.12,SE,135,19.0,21.0,53,0.00,,,0.00,meteohub,2013-04-26 14:12:00,
2013-04-26 09:17:00,51.8,35.2,30.12,SE,135,21.0,24.0,53,0.00,,,0.00,meteohub,2013-04-26 14:17:00,
2013-04-26 09:22:00,52.2,35.1,30.12,South,180,20.0,24.0,52,0.00,,,0.00,meteohub,2013-04-26 14:22:00,
2013-04-26 09:27:00,52.5,35.4,30.13,SE,135,16.0,24.0,52,0.00,,,0.00,meteohub,2013-04-26 14:27:00,
2013-04-26 09:32:00,53.4,36.3,30.12,South,180,13.0,23.0,52,0.00,,,0.00,meteohub,2013-04-26 14:32:00,
2013-04-26 09:37:00,53.4,36.3,30.12,SE,135,10.0,22.0,52,0.00,,,0.00,meteohub,2013-04-26 14:37:00,
2013-04-26 09:42:00,53.6,35.4,30.12,SE,135,13.0,19.0,50,0.00,,,0.00,meteohub,2013-04-26 14:42:00,
2013-04-26 09:47:00,54.1,36.3,30.12,South,180,15.0,24.0,51,0.00,,,0.00,meteohub,2013-04-26 14:47:00,
2013-04-26 09:52:00,54.3,36.5,30.13,South,180,13.0,24.0,51,0.00,,,0.00,meteohub,2013-04-26 14:52:00,
2013-04-26 09:57:00,54.3,36.5,30.13,South,180,11.0,24.0,51,0.00,,,0.00,meteohub,2013-04-26 14:57:00,
2013-04-26 10:02:00,54.9,37.0,30.13,South,180,13.0,18.0,51,0.00,,,0.00,meteohub,2013-04-26 15:02:00,
2013-04-26 10:07:00,54.5,36.3,30.13,South,180,11.0,18.0,50,0.00,,,0.00,meteohub,2013-04-26 15:07:00,
2013-04-26 10:12:00,54.9,37.0,30.13,South,180,9.0,17.0,51,0.00,,,0.00,meteohub,2013-04-26 15:12:00,
2013-04-26 10:17:00,55.4,36.5,30.13,SE,135,16.0,20.0,49,0.00,,,0.00,meteohub,2013-04-26 15:17:00,
2013-04-26 10:22:00,55.9,37.6,30.14,South,180,17.0,21.0,50,0.00,,,0.00,meteohub,2013-04-26 15:22:00,
2013-04-26 10:27:00,55.9,37.0,30.14,South,180,19.0,21.0,49,0.00,,,0.00,meteohub,2013-04-26 15:27:00,
2013-04-26 10:32:00,56.5,37.6,30.14,SW,225,13.0,21.0,49,0.00,,,0.00,meteohub,2013-04-26 15:32:00,
2013-04-26 10:37:00,57.0,38.5,30.14,SE,135,13.0,19.0,50,0.00,,,0.00,meteohub,2013-04-26 15:37:00,
2013-04-26 10:42:00,57.4,37.4,30.14,South,180,18.0,20.0,47,0.00,,,0.00,meteohub,2013-04-26 15:42:00,
2013-04-26 10:47:00,57.7,37.6,30.14,South,180,17.0,22.0,47,0.00,,,0.00,meteohub,2013-04-26 15:47:00,
2013-04-26 10:52:00,58.3,38.7,30.14,South,180,18.0,22.0,48,0.00,,,0.00,meteohub,2013-04-26 15:52:00,
2013-04-26 10:57:00,58.6,38.5,30.14,South,180,21.0,22.0,47,0.00,,,0.00,meteohub,2013-04-26 15:57:00,
2013-04-26 11:02:00,58.8,38.7,30.15,SE,135,15.0,21.0,47,0.00,,,0.00,meteohub,2013-04-26 16:02:00,
2013-04-26 11:07:00,59.4,38.7,30.15,South,180,12.0,21.0,46,0.00,,,0.00,meteohub,2013-04-26 16:07:00,
2013-04-26 11:12:00,60.3,39.4,30.14,South,180,14.0,21.0,46,0.00,,,0.00,meteohub,2013-04-26 16:12:00,
2013-04-26 11:17:00,60.8,38.7,30.15,South,180,19.0,19.0,44,0.00,,,0.00,meteohub,2013-04-26 16:17:00,
2013-04-26 11:22:00,60.4,39.0,30.15,South,180,20.0,21.0,45,0.00,,,0.00,meteohub,2013-04-26 16:22:00,
2013-04-26 11:27:00,60.6,39.2,30.15,South,180,23.0,23.0,45,0.00,,,0.00,meteohub,2013-04-26 16:27:00,
2013-04-26 11:32:00,61.0,39.6,30.14,SW,225,8.0,23.0,45,0.00,,,0.00,meteohub,2013-04-26 16:32:00,
2013-04-26 11:37:00,62.2,40.1,30.15,South,180,25.0,25.0,44,0.00,,,0.00,meteohub,2013-04-26 16:37:00,
2013-04-26 11:42:00,62.2,40.1,30.14,South,180,14.0,25.0,44,0.00,,,0.00,meteohub,2013-04-26 16:42:00,
2013-04-26 11:47:00,62.2,39.4,30.14,South,180,17.0,25.0,43,0.00,,,0.00,meteohub,2013-04-26 16:47:00,
2013-04-26 11:52:00,62.2,40.1,30.14,SW,225,12.0,25.0,44,0.00,,,0.00,meteohub,2013-04-26 16:52:00,
2013-04-26 11:57:00,63.7,40.8,30.14,South,180,14.0,21.0,43,0.00,,,0.00,meteohub,2013-04-26 16:57:00,
2013-04-26 12:02:00,64.0,40.5,30.14,South,180,17.0,21.0,42,0.00,,,0.00,meteohub,2013-04-26 17:02:00,
2013-04-26 12:07:00,63.1,39.7,30.14,South,180,21.0,25.0,42,0.00,,,0.00,meteohub,2013-04-26 17:07:00,
2013-04-26 12:12:00,63.3,41.0,30.14,South,180,17.0,25.0,44,0.00,,,0.00,meteohub,2013-04-26 17:12:00,
2013-04-26 12:17:00,64.6,42.8,30.13,South,180,17.0,25.0,45,0.00,,,0.00,meteohub,2013-04-26 17:17:00,
2013-04-26 12:22:00,64.4,42.1,30.13,SW,225,17.0,25.0,44,0.00,,,0.00,meteohub,2013-04-26 17:22:00,
2013-04-26 12:27:00,64.8,42.3,30.13,SE,135,20.0,25.0,44,0.00,,,0.00,meteohub,2013-04-26 17:27:00,
2013-04-26 12:32:00,64.6,42.8,30.13,WNW,293,12.0,25.0,45,0.00,,,0.00,meteohub,2013-04-26 17:32:00,
2013-04-26 12:37:00,64.9,42.4,30.12,South,180,14.0,23.0,44,0.00,,,0.00,meteohub,2013-04-26 17:37:00,
2013-04-26 12:42:00,64.6,42.3,30.13,South,180,13.0,23.0,44,0.00,,,0.00,meteohub,2013-04-26 17:42:00,
2013-04-26 12:47:00,65.3,43.3,30.12,South,180,17.0,21.0,45,0.00,,,0.00,meteohub,2013-04-26 17:47:00,
2013-04-26 12:52:00,64.9,43.2,30.12,SW,225,12.0,23.0,45,0.00,,,0.00,meteohub,2013-04-26 17:52:00,
2013-04-26 12:57:00,65.5,43.5,30.12,NW,315,16.0,24.0,45,0.00,,,0.00,meteohub,2013-04-26 17:57:00,
2013-04-26 13:02:00,65.5,43.5,30.12,SW,225,17.0,24.0,45,0.00,,,0.00,meteohub,2013-04-26 18:02:00,
2013-04-26 13:07:00,66.7,44.8,30.11,NNE,23,15.0,22.0,45,0.00,,,0.00,meteohub,2013-04-26 18:07:00,
2013-04-26 13:12:00,67.5,44.8,30.10,SW,225,21.0,22.0,44,0.00,,,0.00,meteohub,2013-04-26 18:12:00,
2013-04-26 13:17:00,67.1,42.6,30.10,SW,225,20.0,22.0,41,0.00,,,0.00,meteohub,2013-04-26 18:17:00,
2013-04-26 13:22:00,66.7,42.3,30.10,South,180,28.0,28.0,41,0.00,,,0.00,meteohub,2013-04-26 18:22:00,
2013-04-26 13:27:00,66.7,43.5,30.11,SW,225,21.0,28.0,43,0.00,,,0.00,meteohub,2013-04-26 18:27:00,
2013-04-26 13:32:00,66.9,43.2,30.11,South,180,19.0,28.0,42,0.00,,,0.00,meteohub,2013-04-26 18:32:00,
2013-04-26 13:37:00,66.9,43.7,30.11,SW,225,19.0,28.0,43,0.00,,,0.00,meteohub,2013-04-26 18:37:00,
2013-04-26 13:42:00,67.3,44.6,30.11,SW,225,25.0,28.0,44,0.00,,,0.00,meteohub,2013-04-26 18:42:00,
2013-04-26 13:47:00,67.3,44.6,30.10,SW,225,30.0,30.0,44,0.00,,,0.00,meteohub,2013-04-26 18:47:00,
2013-04-26 13:52:00,67.6,45.0,30.10,SW,225,21.0,30.0,44,0.00,,,0.00,meteohub,2013-04-26 18:52:00,
2013-04-26 13:57:00,68.2,44.8,30.10,SW,225,15.0,30.0,43,0.00,,,0.00,meteohub,2013-04-26 18:57:00,
2013-04-26 14:02:00,68.9,45.5,30.09,NW,315,17.0,30.0,43,0.00,,,0.00,meteohub,2013-04-26 19:02:00,
2013-04-26 14:07:00,68.0,44.6,30.10,South,180,23.0,29.0,43,0.00,,,0.00,meteohub,2013-04-26 19:07:00,
2013-04-26 14:12:00,67.3,44.6,30.10,SW,225,26.0,30.0,44,0.00,,,0.00,meteohub,2013-04-26 19:12:00,
2013-04-26 14:17:00,67.5,44.8,30.09,South,180,25.0,31.0,44,0.00,,,0.00,meteohub,2013-04-26 19:17:00,
2013-04-26 14:22:00,68.4,45.0,30.09,SW,225,28.0,31.0,43,0.00,,,0.00,meteohub,2013-04-26 19:22:00,
2013-04-26 14:27:00,68.5,45.1,30.09,SW,225,29.0,35.0,43,0.00,,,0.00,meteohub,2013-04-26 19:27:00,
2013-04-26 14:32:00,68.2,43.5,30.09,NW,315,16.0,35.0,41,0.00,,,0.00,meteohub,2013-04-26 19:32:00,
2013-04-26 14:37:00,68.4,42.4,30.10,SW,225,29.0,35.0,39,0.00,,,0.00,meteohub,2013-04-26 19:37:00,
2013-04-26 14:42:00,68.5,42.6,30.10,SW,225,23.0,35.0,39,0.00,,,0.00,meteohub,2013-04-26 19:42:00,
2013-04-26 14:47:00,68.0,41.4,30.09,SW,225,24.0,29.0,38,0.00,,,0.00,meteohub,2013-04-26 19:47:00,
2013-04-26 14:52:00,68.4,41.7,30.09,SW,225,20.0,34.0,38,0.04,,,0.04,meteohub,2013-04-26 19:52:00,
2013-04-26 14:57:00,68.0,41.4,30.09,South,180,18.0,34.0,38,0.04,,,0.04,meteohub,2013-04-26 19:57:00,
2013-04-26 15:02:00,68.0,41.4,30.10,SW,225,23.0,34.0,38,0.04,,,0.04,meteohub,2013-04-26 20:02:00,
2013-04-26 15:07:00,68.0,41.4,30.09,SW,225,27.0,32.0,38,0.04,,,0.04,meteohub,2013-04-26 20:07:00,
2013-04-26 15:12:00,68.0,42.1,30.09,SW,225,16.0,32.0,39,0.04,,,0.04,meteohub,2013-04-26 20:12:00,
2013-04-26 15:17:00,68.0,41.4,30.09,South,180,27.0,32.0,38,0.04,,,0.04,meteohub,2013-04-26 20:17:00,
2013-04-26 15:22:00,67.6,41.7,30.09,NW,315,21.0,27.0,39,0.04,,,0.04,meteohub,2013-04-26 20:22:00,
2013-04-26 15:27:00,67.8,41.9,30.09,SW,225,27.0,33.0,39,0.04,,,0.04,meteohub,2013-04-26 20:27:00,
2013-04-26 15:32:00,68.2,42.3,30.09,SW,225,17.0,33.0,39,0.04,,,0.04,meteohub,2013-04-26 20:32:00,
2013-04-26 15:37:00,68.7,41.4,30.09,SE,135,20.0,33.0,37,0.04,,,0.04,meteohub,2013-04-26 20:37:00,
2013-04-26 15:42:00,68.2,40.3,30.09,SW,225,25.0,27.0,36,0.04,,,0.04,meteohub,2013-04-26 20:42:00,
2013-04-26 15:47:00,68.2,41.0,30.09,SW,225,25.0,26.0,37,0.04,,,0.04,meteohub,2013-04-26 20:47:00,
2013-04-26 15:52:00,68.0,40.1,30.09,North,0,21.0,26.0,36,0.00,,,0.04,meteohub,2013-04-26 20:52:00,
2013-04-26 15:57:00,68.2,41.0,30.09,SSW,203,26.0,34.0,37,0.00,,,0.04,meteohub,2013-04-26 20:57:00,
2013-04-26 16:02:00,68.0,40.1,30.08,SW,225,27.0,34.0,36,0.00,,,0.04,meteohub,2013-04-26 21:02:00,
2013-04-26 16:07:00,68.0,40.8,30.09,SW,225,25.0,30.0,37,0.00,,,0.04,meteohub,2013-04-26 21:07:00,
2013-04-26 16:12:00,67.3,40.8,30.09,WSW,248,16.0,29.0,38,0.00,,,0.04,meteohub,2013-04-26 21:12:00,
2013-04-26 16:17:00,67.6,41.7,30.09,South,180,23.0,29.0,39,0.00,,,0.04,meteohub,2013-04-26 21:17:00,
2013-04-26 16:22:00,67.5,41.7,30.09,South,180,16.0,26.0,39,0.00,,,0.04,meteohub,2013-04-26 21:22:00,
2013-04-26 16:27:00,67.3,42.8,30.09,South,180,15.0,23.0,41,0.00,,,0.04,meteohub,2013-04-26 21:27:00,
2013-04-26 16:32:00,67.5,43.0,30.09,SW,225,21.0,23.0,41,0.00,,,0.04,meteohub,2013-04-26 21:32:00,
2013-04-26 16:37:00,67.3,42.8,30.09,South,180,18.0,27.0,41,0.00,,,0.04,meteohub,2013-04-26 21:37:00,
2013-04-26 16:42:00,67.1,42.6,30.09,South,180,16.0,27.0,41,0.00,,,0.04,meteohub,2013-04-26 21:42:00,
2013-04-26 16:47:00,67.1,41.9,30.09,South,180,23.0,27.0,40,0.00,,,0.04,meteohub,2013-04-26 21:47:00,
2013-04-26 16:52:00,67.1,41.9,30.09,SW,225,19.0,23.0,40,0.00,,,0.04,meteohub,2013-04-26 21:52:00,
2013-04-26 16:57:00,66.9,41.9,30.10,SW,225,18.0,32.0,40,0.00,,,0.04,meteohub,2013-04-26 21:57:00,
2013-04-26 17:02:00,66.7,41.7,30.10,SW,225,14.0,32.0,40,0.00,,,0.04,meteohub,2013-04-26 22:02:00,
2013-04-26 17:07:00,65.8,41.5,30.10,South,180,17.0,32.0,41,0.00,,,0.04,meteohub,2013-04-26 22:07:00,
2013-04-26 17:12:00,65.5,42.4,30.10,SW,225,17.0,27.0,43,0.00,,,0.04,meteohub,2013-04-26 22:12:00,
2013-04-26 17:18:00,65.1,43.3,30.10,South,180,25.0,26.0,45,0.00,,,0.04,meteohub,2013-04-26 22:18:00,
2013-04-26 17:23:00,64.8,43.0,30.10,South,180,17.0,26.0,45,0.00,,,0.04,meteohub,2013-04-26 22:23:00,
2013-04-26 17:28:00,64.9,43.2,30.11,SW,225,27.0,27.0,45,0.00,,,0.04,meteohub,2013-04-26 22:28:00,
2013-04-26 17:33:00,65.3,43.3,30.11,SW,225,19.0,27.0,45,0.00,,,0.04,meteohub,2013-04-26 22:33:00,
2013-04-26 17:38:00,65.3,43.3,30.11,SW,225,27.0,27.0,45,0.00,,,0.04,meteohub,2013-04-26 22:38:00,
2013-04-26 17:43:00,64.6,42.8,30.10,SW,225,19.0,27.0,45,0.00,,,0.04,meteohub,2013-04-26 22:43:00,
2013-04-26 17:48:00,64.9,43.7,30.11,SW,225,24.0,27.0,46,0.00,,,0.04,meteohub,2013-04-26 22:48:00,
2013-04-26 17:53:00,65.3,43.3,30.11,South,180,19.0,27.0,45,0.00,,,0.04,meteohub,2013-04-26 22:53:00,
2013-04-26 17:58:00,64.9,43.2,30.11,South,180,8.0,24.0,45,0.00,,,0.04,meteohub,2013-04-26 22:58:00,
2013-04-26 18:03:00,64.4,42.6,30.12,SW,225,11.0,24.0,45,0.00,,,0.04,meteohub,2013-04-26 23:03:00,
2013-04-26 18:08:00,63.9,42.1,30.11,SW,225,13.0,23.0,45,0.00,,,0.04,meteohub,2013-04-26 23:08:00,
2013-04-26 18:13:00,63.7,42.4,30.12,SW,225,12.0,17.0,46,0.00,,,0.04,meteohub,2013-04-26 23:13:00,
2013-04-26 18:18:00,63.7,42.4,30.12,SW,225,15.0,16.0,46,0.00,,,0.04,meteohub,2013-04-26 23:18:00,
2013-04-26 18:24:00,63.5,42.3,30.12,SW,225,16.0,16.0,46,0.00,,,0.04,meteohub,2013-04-26 23:24:00,
2013-04-26 18:29:00,63.1,42.6,30.12,South,180,6.0,21.0,47,0.00,,,0.04,meteohub,2013-04-26 23:29:00,
2013-04-26 18:34:00,63.0,43.0,30.12,SW,225,11.0,21.0,48,0.00,,,0.04,meteohub,2013-04-26 23:34:00,
2013-04-26 18:39:00,62.8,42.3,30.12,South,180,10.0,21.0,47,0.00,,,0.04,meteohub,2013-04-26 23:39:00,
2013-04-26 18:44:00,62.6,42.1,30.12,South,180,15.0,22.0,47,0.00,,,0.04,meteohub,2013-04-26 23:44:00,
2013-04-26 18:49:00,62.4,43.0,30.12,South,180,11.0,22.0,49,0.00,,,0.04,meteohub,2013-04-26 23:49:00,
2013-04-26 18:54:00,62.4,43.0,30.12,SW,225,10.0,22.0,49,0.00,,,0.04,meteohub,2013-04-26 23:54:00,
2013-04-26 19:05:00,61.9,42.4,30.13,SW,225,5.0,19.0,49,0.00,,,0.00,meteohub,2013-04-27 00:05:00,
2013-04-26 19:11:00,61.9,43.0,30.13,South,180,8.0,19.0,50,0.00,,,0.00,meteohub,2013-04-27 00:11:00,
2013-04-26 19:16:00,61.9,43.0,30.12,SW,225,13.0,17.0,50,0.00,,,0.00,meteohub,2013-04-27 00:16:00,
2013-04-26 19:21:00,61.7,42.8,30.12,South,180,11.0,17.0,50,0.00,,,0.00,meteohub,2013-04-27 00:21:00,
2013-04-26 19:26:00,61.7,42.8,30.12,SW,225,8.0,17.0,50,0.00,,,0.00,meteohub,2013-04-27 00:26:00,
2013-04-26 19:31:00,61.5,42.6,30.12,SW,225,11.0,17.0,50,0.00,,,0.00,meteohub,2013-04-27 00:31:00,
2013-04-26 19:36:00,61.3,43.0,30.13,South,180,12.0,17.0,51,0.00,,,0.00,meteohub,2013-04-27 00:36:00,
2013-04-26 19:41:00,61.2,42.4,30.13,SW,225,10.0,15.0,50,0.00,,,0.00,meteohub,2013-04-27 00:41:00,
2013-04-26 19:46:00,61.2,43.0,30.13,South,180,7.0,15.0,51,0.00,,,0.00,meteohub,2013-04-27 00:46:00,
2013-04-26 19:51:00,60.8,43.0,30.13,South,180,8.0,15.0,52,0.00,,,0.00,meteohub,2013-04-27 00:51:00,
2013-04-26 19:56:00,60.4,43.2,30.13,South,180,13.0,15.0,53,0.00,,,0.00,meteohub,2013-04-27 00:56:00,
2013-04-26 20:01:00,60.3,43.5,30.14,South,180,13.0,17.0,54,0.00,,,0.00,meteohub,2013-04-27 01:01:00,
2013-04-26 20:06:00,60.1,43.9,30.14,South,180,8.0,17.0,55,0.00,,,0.00,meteohub,2013-04-27 01:06:00,
2013-04-26 20:11:00,59.9,44.2,30.14,West,270,5.0,17.0,56,0.00,,,0.00,meteohub,2013-04-27 01:11:00,
2013-04-26 20:16:00,59.7,44.1,30.14,South,180,15.0,16.0,56,0.00,,,0.00,meteohub,2013-04-27 01:16:00,
2013-04-26 20:21:00,59.5,43.9,30.14,SW,225,15.0,15.0,56,0.00,,,0.00,meteohub,2013-04-27 01:21:00,
2013-04-26 20:26:00,59.5,44.2,30.14,South,180,11.0,17.0,57,0.00,,,0.00,meteohub,2013-04-27 01:26:00,
2013-04-26 20:31:00,59.5,44.2,30.14,SW,225,11.0,17.0,57,0.00,,,0.00,meteohub,2013-04-27 01:31:00,
2013-04-26 20:36:00,59.5,44.2,30.14,SW,225,17.0,17.0,57,0.00,,,0.00,meteohub,2013-04-27 01:36:00,
2013-04-26 20:41:00,59.5,44.2,30.15,SW,225,14.0,17.0,57,0.00,,,0.00,meteohub,2013-04-27 01:41:00,
2013-04-26 20:46:00,59.4,44.6,30.15,South,180,10.0,17.0,58,0.00,,,0.00,meteohub,2013-04-27 01:46:00,
2013-04-26 20:51:00,59.4,44.6,30.15,SW,225,7.0,17.0,58,0.00,,,0.00,meteohub,2013-04-27 01:51:00,
2013-04-26 20:57:00,59.0,44.2,30.16,South,180,11.0,17.0,58,0.00,,,0.00,meteohub,2013-04-27 01:57:00,
2013-04-26 21:02:00,58.8,45.0,30.16,South,180,13.0,15.0,60,0.00,,,0.00,meteohub,2013-04-27 02:02:00,
2013-04-26 21:07:00,58.5,44.6,30.16,South,180,11.0,15.0,60,0.00,,,0.00,meteohub,2013-04-27 02:07:00,
2013-04-26 21:12:00,58.1,44.8,30.16,SW,225,14.0,16.0,61,0.00,,,0.00,meteohub,2013-04-27 02:12:00,
2013-04-26 21:17:00,57.9,44.6,30.16,SW,225,6.0,16.0,61,0.00,,,0.00,meteohub,2013-04-27 02:17:00,
2013-04-26 21:22:00,57.6,44.6,30.17,SE,135,10.0,16.0,62,0.00,,,0.00,meteohub,2013-04-27 02:22:00,
2013-04-26 21:27:00,57.2,44.2,30.16,South,180,15.0,15.0,62,0.00,,,0.00,meteohub,2013-04-27 02:27:00,
2013-04-26 21:32:00,56.8,44.8,30.17,SW,225,8.0,15.0,64,0.00,,,0.00,meteohub,2013-04-27 02:32:00,
2013-04-26 21:37:00,56.7,44.6,30.17,West,270,8.0,15.0,64,0.00,,,0.00,meteohub,2013-04-27 02:37:00,
2013-04-26 21:42:00,56.5,44.8,30.17,South,180,12.0,17.0,65,0.00,,,0.00,meteohub,2013-04-27 02:42:00,
2013-04-26 21:47:00,56.3,44.6,30.17,South,180,6.0,17.0,65,0.00,,,0.00,meteohub,2013-04-27 02:47:00,
2013-04-26 21:52:00,56.1,44.6,30.17,South,180,11.0,14.0,65,0.00,,,0.00,meteohub,2013-04-27 02:52:00,
2013-04-26 21:57:00,55.9,44.4,30.17,SW,225,8.0,18.0,65,0.00,,,0.00,meteohub,2013-04-27 02:57:00,
2013-04-26 22:02:00,56.1,44.6,30.16,South,180,10.0,18.0,65,0.00,,,0.00,meteohub,2013-04-27 03:02:00,
2013-04-26 22:07:00,55.9,44.4,30.17,South,180,11.0,16.0,65,0.00,,,0.00,meteohub,2013-04-27 03:07:00,
2013-04-26 22:12:00,55.6,44.4,30.17,South,180,13.0,16.0,66,0.00,,,0.00,meteohub,2013-04-27 03:12:00,
2013-04-26 22:17:00,55.4,44.2,30.17,SE,135,8.0,15.0,66,0.00,,,0.00,meteohub,2013-04-27 03:17:00,
2013-04-26 22:22:00,55.2,43.7,30.17,SE,135,9.0,15.0,65,0.00,,,0.00,meteohub,2013-04-27 03:22:00,
2013-04-26 22:27:00,55.0,43.9,30.17,South,180,7.0,14.0,66,0.00,,,0.00,meteohub,2013-04-27 03:27:00,
2013-04-26 22:32:00,54.9,43.7,30.17,South,180,10.0,11.0,66,0.00,,,0.00,meteohub,2013-04-27 03:32:00,
2013-04-26 22:37:00,54.7,43.9,30.17,South,180,8.0,10.0,67,0.00,,,0.00,meteohub,2013-04-27 03:37:00,
2013-04-26 22:42:00,54.5,43.7,30.17,SE,135,8.0,11.0,67,0.00,,,0.00,meteohub,2013-04-27 03:42:00,
2013-04-26 22:47:00,54.5,43.7,30.17,South,180,10.0,11.0,67,0.00,,,0.00,meteohub,2013-04-27 03:47:00,
2013-04-26 22:52:00,54.5,43.7,30.17,South,180,10.0,11.0,67,0.00,,,0.00,meteohub,2013-04-27 03:52:00,
2013-04-26 22:57:00,53.8,43.5,30.17,SE,135,10.0,11.0,68,0.00,,,0.00,meteohub,2013-04-27 03:57:00,
2013-04-26 23:01:00,53.8,43.9,30.17,SW,225,11.0,11.0,69,0.00,,,0.00,meteohub,2013-04-27 04:01:00,
2013-04-26 23:02:00,53.8,43.9,30.17,SW,225,11.0,11.0,69,0.00,,,0.00,meteohub,2013-04-27 04:02:00,
2013-04-26 23:07:00,53.8,43.9,30.17,SW,225,11.0,15.0,69,0.00,,,0.00,meteohub,2013-04-27 04:07:00,
2013-04-26 23:08:00,54.1,43.9,30.17,SW,225,8.0,15.0,68,0.00,,,0.00,meteohub,2013-04-27 04:08:00,
2013-04-26 23:13:00,54.1,43.9,30.17,SW,225,6.0,16.0,68,0.00,,,0.00,meteohub,2013-04-27 04:13:00,
2013-04-26 23:16:00,54.1,43.9,30.17,South,180,9.0,16.0,68,0.00,,,0.00,meteohub,2013-04-27 04:16:00,
2013-04-26 23:21:00,54.1,43.9,30.17,SE,135,6.0,16.0,68,0.00,,,0.00,meteohub,2013-04-27 04:21:00,
2013-04-26 23:26:00,54.0,43.7,30.17,SW,225,11.0,11.0,68,0.00,,,0.00,meteohub,2013-04-27 04:26:00,
2013-04-26 23:31:00,53.8,43.5,30.17,SW,225,5.0,12.0,68,0.00,,,0.00,meteohub,2013-04-27 04:31:00,
2013-04-26 23:36:00,53.4,43.9,30.17,SE,135,6.0,12.0,70,0.00,,,0.00,meteohub,2013-04-27 04:36:00,
2013-04-26 23:41:00,53.6,44.1,30.17,South,180,8.0,12.0,70,0.00,,,0.00,meteohub,2013-04-27 04:41:00,
2013-04-26 23:46:00,53.4,44.2,30.17,South,180,7.0,11.0,71,0.00,,,0.00,meteohub,2013-04-27 04:46:00,
2013-04-26 23:51:00,53.1,43.9,30.17,South,180,7.0,11.0,71,0.00,,,0.00,meteohub,2013-04-27 04:51:00,
2013-04-26 23:56:00,52.7,43.9,30.17,SW,225,8.0,10.0,72,0.00,,,0.00,meteohub,2013-04-27 04:56:00,